GW0614 Weather Reports


Display with metric or nautical units.
time (UTC)temp
F
wind
direction
speed
MPH
gust
MPH
rain 1hr
in
rain 24hr
in
rain mn
in
humidity
%
barometer
mb
20260901110921 67 10 0.0 0.0 0.00 0.30 0.30 99 1019.4
20260901110417 67 10 0.0 0.0 0.07 0.30 0.30 99 1019.3
20260901105913 67 10 0.0 0.0 0.07 0.30 0.30 99 1019.4
20260901105408 67 10 0.0 0.0 0.00 0.29 0.29 99 1019.4
20260901104904 67 10 0.0 0.0 0.00 0.29 0.29 99 1019.2
20260901104359 67 10 0.0 0.0 0.00 0.29 0.29 99 1019.2
20260901103854 67 10 0.0 0.0 0.00 0.29 0.29 99 1019.0
20260901103348 67 10 0.0 0.0 0.07 0.29 0.29 99 1019.3
20260901102843 67 10 0.0 0.0 0.54 0.29 0.29 99 1019.2
20260901102338 67 10 0.0 0.0 0.78 0.28 0.28 99 1019.2
20260901101834 67 7 0.0 0.0 0.26 0.19 0.19 99 1019.5
20260901101333 67 357 0.0 0.0 0.00 0.15 0.15 99 1019.2
20260901100833 67 357 0.0 0.0 0.05 0.15 0.15 99 1018.9
20260901100327 67 357 0.0 0.0 0.05 0.15 0.15 99 1019.0
20260901095827 67 357 0.0 0.0 0.07 0.14 0.14 99 1019.3
20260901095324 67 357 0.0 0.0 0.12 0.14 0.14 99 1019.1
20260901094818 67 357 0.0 0.0 0.12 0.13 0.13 99 1019.2
20260901094313 67 357 0.0 0.0 0.12 0.13 0.13 99 1019.0
20260901093808 67 357 0.0 0.0 0.12 0.12 0.12 99 1019.1
20260901093307 67 341 0.0 0.0 0.17 0.11 0.11 99 1018.8
20260901092803 67 341 0.0 0.0 0.19 0.10 0.10 99 1019.1
20260901092259 67 341 0.0 0.0 0.12 0.08 0.08 99 1019.2
20260901091755 67 341 0.0 0.0 0.12 0.07 0.07 99 1019.3
20260901091249 67 341 0.0 0.0 0.12 0.06 0.06 99 1019.3
20260901090744 67 341 0.0 0.0 0.12 0.05 0.05 99 1019.4
20260901090239 67 341 0.0 0.0 0.19 0.04 0.04 99 1019.2
20260901085735 67 341 0.0 0.0 0.12 0.02 0.02 99 1019.5
20260901085230 67 341 0.0 0.0 0.07 0.01 0.01 99 1019.6
20260901084726 67 341 0.0 0.0 0.00 0.00 0.00 99 1019.5
20260901084222 67 341 0.0 0.0 0.00 0.00 0.00 99 1019.2
20260901083717 67 341 0.0 0.0 0.00 0.00 0.00 99 1019.5
20260901083216 67 341 0.0 0.0 0.00 0.00 0.00 99 1019.8
20260901082715 67 341 0.0 0.0 0.00 0.00 0.00 99 1019.8
20260901082211 67 4 0.0 0.0 0.00 0.00 0.00 99 1019.4
20260901081706 67 4 0.0 0.0 0.00 0.00 0.00 99 1019.8
20260901081206 67 5 0.0 0.0 0.00 0.00 0.00 99 1019.7
20260901080701 67 5 0.0 0.0 0.00 0.00 0.00 99 1019.9
20260901080159 67 338 0.0 0.0 0.00 0.00 0.00 99 1019.6
20260901075654 67 338 0.0 0.0 0.00 0.00 0.00 99 1019.9
20260901075149 67 338 0.0 0.0 0.00 0.00 0.00 99 1020.2
20260901074648 67 338 0.0 0.0 0.00 0.00 0.00 99 1020.1
20260901074144 67 338 0.0 0.0 0.00 0.00 0.00 99 1020.2
20260901073640 67 338 0.0 0.0 0.00 0.00 0.00 99 1020.2
20260901073135 67 338 0.0 0.0 0.00 0.00 0.00 99 1020.2
20260901072630 67 338 0.0 0.0 0.00 0.00 0.00 99 1020.2
20260901072125 67 338 0.0 0.0 0.00 0.00 0.00 99 1020.3
20260901071625 67 338 0.0 0.0 0.00 0.00 0.00 99 1020.1
20260901071125 67 338 0.0 0.0 0.00 0.00 0.00 99 1020.1
20260901070619 67 338 0.0 0.0 0.00 0.00 0.00 99 1020.2
20260901070114 67 349 0.0 0.0 0.00 0.00 0.00 99 1020.0
20260901065608 67 3 0.0 0.0 0.00 0.00 0.00 99 1019.9
20260901065103 67 8 0.0 0.0 0.00 0.00 0.00 99 1019.9
20260901064600 67 0 0.0 0.0 0.00 0.00 0.00 99 1020.0
20260901064056 67 1 0.0 0.0 0.00 0.00 0.00 99 1020.1
20260901063553 67 0 0.0 0.0 0.00 0.00 0.00 99 1020.1
20260901063049 67 0 0.0 0.0 0.00 0.00 0.00 99 1020.3
20260901062544 67 0 0.0 0.0 0.00 0.00 0.00 99 1020.8
20260901062040 67 1 0.0 0.0 0.00 0.00 0.00 99 1020.9
20260901061537 67 1 0.0 0.0 0.00 0.00 0.00 99 1021.0
20260901061036 67 1 0.0 0.0 0.00 0.00 0.00 99 1020.8
20260901060531 67 1 0.0 0.0 0.00 0.00 0.00 99 1021.0
20260901060026 67 1 0.0 0.0 0.00 0.00 0.00 99 1021.2
20260901055521 67 1 0.0 0.0 0.00 0.00 0.00 99 1020.9
20260901055018 67 1 0.0 0.0 0.00 0.00 0.00 99 1021.1
20260901054515 67 1 0.0 0.0 0.00 0.00 0.00 99 1020.9
20260901054011 67 1 0.0 0.0 0.00 0.00 0.00 99 1021.0
20260901053506 67 1 0.0 0.0 0.00 0.00 0.00 99 1021.0
20260901053002 67 1 0.0 0.0 0.00 0.00 0.00 99 1021.0
20260901052458 67 1 0.0 0.0 0.00 0.00 0.00 99 1020.9
20260901051956 67 1 0.0 0.0 0.00 0.00 0.00 99 1020.8
20260901051452 67 1 0.0 0.0 0.00 0.00 0.00 99 1020.8
20260901050951 67 1 0.0 0.0 0.00 0.00 0.00 99 1021.0
20260901050446 67 1 0.0 0.0 0.00 0.00 0.00 99 1021.3
20260901045946 67 1 0.0 0.0 0.00 0.00 0.00 99 1021.5
20260901045441 67 1 0.0 0.0 0.00 0.00 0.00 99 1021.4
20260901044936 67 1 0.0 0.0 0.00 0.00 0.00 99 1021.6
20260901044432 67 1 0.0 0.0 0.00 0.00 0.00 99 1021.6
20260901043928 67 1 0.0 0.0 0.00 0.00 0.00 99 1021.3
20260901043424 67 3 0.0 0.0 0.00 0.00 0.00 99 1021.2
20260901042918 67 3 0.0 0.0 0.00 0.00 0.00 99 1021.3
20260901042413 67 341 0.0 0.0 0.00 0.00 0.00 99 1021.2
20260901041908 67 338 0.0 0.0 0.00 0.00 0.00 99 1021.4
20260901041408 67 337 0.0 0.0 0.00 0.00 0.00 99 1021.2
20260901040908 67 1 0.0 0.0 0.00 0.00 0.00 99 1021.1
20260901040408 67 1 0.0 0.0 0.00 0.00 0.00 99 1021.1
20260901035902 67 1 0.0 0.0 0.00 0.00 0.00 99 1021.1
20260901035400 67 334 0.0 0.0 0.00 0.00 0.00 99 1021.2
20260901034859 67 338 0.0 0.0 0.00 0.00 0.00 99 1021.3
20260901034354 67 338 0.0 0.0 0.00 0.00 0.00 99 1020.9
20260901033849 67 338 0.0 0.0 0.00 0.00 0.00 99 1021.1
20260901033348 67 338 0.0 0.0 0.00 0.00 0.00 99 1021.2
20260901032847 67 338 0.0 0.0 0.00 0.00 0.00 99 1021.7
20260901032346 67 338 0.0 0.0 0.00 0.00 0.00 99 1021.8
20260901031842 67 338 0.0 0.0 0.00 0.00 0.00 99 1021.6
20260901031338 67 338 0.0 0.0 0.00 0.00 0.00 99 1021.6
20260901030837 67 338 0.0 0.0 0.00 0.00 0.00 99 1021.6
20260901030332 67 338 0.0 0.0 0.00 0.00 0.00 99 1021.9
20260901025831 67 337 0.0 0.0 0.00 0.00 0.00 99 1021.7
20260901025326 67 7 0.0 0.0 0.00 0.00 0.00 99 1021.8
20260901024816 67 7 0.0 0.0 0.00 0.00 0.00 99 1022.0
20260901024315 67 7 0.0 0.0 0.00 0.00 0.00 99 1021.8
20260901023813 67 7 0.0 0.0 0.00 0.00 0.00 99 1021.9
20260901023308 67 7 0.0 0.0 0.00 0.00 0.00 99 1021.9
20260901022804 67 7 0.0 0.0 0.00 0.00 0.00 99 1021.8
20260901022259 67 8 0.0 0.0 0.00 0.00 0.00 99 1022.0
20260901021754 67 8 0.0 0.0 0.00 0.00 0.00 99 1021.8
20260901021250 67 8 0.0 0.0 0.00 0.00 0.00 99 1022.1
20260901020745 67 8 0.0 0.0 0.00 0.00 0.00 99 1021.8
20260901020240 67 26 0.0 0.0 0.00 0.00 0.00 99 1022.1
20260901015735 67 10 0.0 0.0 0.00 0.00 0.00 99 1022.0
20260901015231 67 17 0.0 0.0 0.00 0.00 0.00 99 1021.9
20260901014730 67 32 0.0 0.0 0.00 0.00 0.00 99 1022.1
20260901014226 67 36 0.0 0.0 0.00 0.00 0.00 99 1021.7
20260901013721 67 36 0.0 0.0 0.00 0.00 0.00 99 1021.9
20260901013217 67 350 0.0 0.0 0.00 0.00 0.00 99 1021.7
20260901012712 67 14 0.0 0.0 0.00 0.00 0.00 99 1021.7
20260901012213 67 13 0.0 0.0 0.00 0.00 0.00 99 1021.9
20260901011708 67 29 0.0 0.0 0.00 0.00 0.00 99 1021.9
20260901011208 67 346 0.0 0.0 0.00 0.00 0.00 99 1021.8
20260901010702 67 356 0.0 0.0 0.00 0.00 0.00 99 1021.8
20260901010157 67 356 0.0 0.0 0.00 0.00 0.00 99 1021.7
20260901005656 67 356 0.0 0.0 0.00 0.00 0.00 99 1022.0
20260901005151 67 356 0.0 0.0 0.00 0.00 0.00 99 1021.8
20260901004651 67 356 0.0 0.0 0.00 0.00 0.00 99 1021.8
20260901004145 67 356 0.0 0.0 0.00 0.00 0.00 99 1021.8
20260901003635 67 356 0.0 0.0 0.00 0.00 0.00 99 1022.0
20260901003134 67 356 0.0 0.0 0.00 0.00 0.00 99 1022.0
20260901002633 67 356 0.0 0.0 0.00 0.00 0.00 99 1021.8
20260901002128 67 356 0.0 0.0 0.00 0.00 0.00 99 1021.9
20260901001624 67 356 0.0 0.0 0.00 0.00 0.00 99 1021.9
20260901001119 67 356 0.0 0.0 0.00 0.00 0.00 99 1021.9
20260901000614 67 356 0.0 0.0 0.00 0.00 0.00 99 1021.7
20260901000110 67 356 0.0 0.0 0.00 0.00 0.00 99 1022.0
20260831235603 67 356 0.0 0.0 0.00 0.00 0.00 99 1021.7
20260831235058 68 356 0.0 0.0 0.00 0.00 0.00 99 1021.6
20260831234552 68 356 0.0 0.0 0.00 0.00 0.00 99 1021.5
20260831234048 68 356 0.0 0.0 0.00 0.00 0.00 99 1021.7
20260831233543 68 356 0.0 0.0 0.00 0.00 0.00 99 1021.6
20260831233039 68 356 0.0 0.0 0.00 0.00 0.00 99 1021.9
20260831232534 68 356 0.0 0.0 0.00 0.00 0.00 99 1021.8
20260831232029 68 356 0.0 0.0 0.00 0.00 0.00 99 1022.2
20260831231526 68 356 0.0 0.0 0.00 0.00 0.00 99 1022.1
20260831231021 69 356 0.0 0.0 0.00 0.00 0.00 99 1022.2
20260831230516 69 356 0.0 0.0 0.00 0.00 0.00 98 1022.0
20260831230011 69 357 0.0 0.0 0.00 0.00 0.00 98 1022.1
20260831225507 69 357 0.0 0.0 0.00 0.00 0.00 98 1022.4
20260831225006 69 357 0.0 0.0 0.00 0.00 0.00 97 1022.2
20260831224501 70 357 0.0 0.0 0.00 0.00 0.00 97 1022.4
20260831223956 70 357 0.0 0.0 0.00 0.00 0.00 97 1022.2
20260831223452 70 357 0.0 0.0 0.00 0.00 0.00 96 1022.5
20260831222948 70 357 0.0 0.0 0.00 0.00 0.00 96 1022.3
20260831222444 71 357 0.0 0.0 0.00 0.00 0.00 95 1022.3
20260831221943 71 357 0.0 0.0 0.00 0.00 0.00 95 1022.2
20260831221439 71 357 0.0 0.0 0.00 0.00 0.00 96 1022.2
20260831220935 72 357 0.0 0.0 0.00 0.00 0.00 95 1022.3
20260831220430 72 357 0.0 0.0 0.00 0.00 0.00 95 1022.3
20260831215925 72 357 0.0 0.0 0.00 0.00 0.00 94 1022.4
20260831215421 72 357 0.0 0.0 0.00 0.00 0.00 94 1022.3
20260831214917 72 357 0.0 0.0 0.00 0.00 0.00 93 1022.2
20260831214414 73 357 0.0 0.0 0.00 0.00 0.00 93 1022.5
20260831213909 73 357 0.0 0.0 0.00 0.00 0.00 92 1022.5
20260831213406 73 357 0.0 0.0 0.00 0.00 0.00 92 1022.6
20260831212901 73 357 0.0 0.0 0.00 0.00 0.00 92 1022.5
20260831212357 74 357 0.0 0.0 0.00 0.00 0.00 91 1022.3
20260831211856 74 357 0.0 0.0 0.00 0.00 0.00 91 1022.3
20260831211356 74 357 0.0 0.0 0.00 0.00 0.00 85 1022.5
20260831210855 74 358 0.0 0.0 0.00 0.00 0.00 91 1022.3
20260831210351 74 358 0.0 0.0 0.00 0.00 0.00 91 1022.4
20260831205847 74 357 0.0 0.0 0.00 0.00 0.00 88 1022.4
20260831205343 75 357 0.0 0.0 0.00 0.00 0.00 90 1022.4
20260831204837 75 358 0.0 0.0 0.00 0.00 0.00 89 1022.3
20260831204336 75 358 0.0 0.0 0.00 0.00 0.00 87 1022.3
20260831203836 75 358 0.0 0.0 0.00 0.00 0.00 89 1022.5
20260831203331 75 357 0.0 0.0 0.00 0.00 0.00 84 1022.4
20260831202829 75 357 0.0 0.0 0.00 0.00 0.00 86 1022.4
20260831202324 76 357 0.0 0.0 0.00 0.00 0.00 79 1022.3
20260831201824 77 358 0.0 0.0 0.00 0.00 0.00 86 1022.6
20260831201323 76 358 0.0 0.0 0.00 0.00 0.00 84 1022.4
20260831200819 77 358 0.0 0.0 0.00 0.00 0.00 78 1022.3
20260831200314 77 6 0.0 0.0 0.00 0.00 0.00 84 1022.4
20260831195809 78 6 0.0 0.0 0.00 0.00 0.00 77 1022.3
20260831195306 77 4 0.0 0.0 0.00 0.00 0.00 82 1022.4
20260831194800 77 30 0.0 0.0 0.00 0.00 0.00 79 1022.6
20260831194255 76 64 0.0 0.0 0.00 0.00 0.00 80 1022.6
20260831193749 77 22 0.0 0.0 0.00 0.00 0.00 84 1022.6
20260831193244 76 22 0.0 0.0 0.00 0.00 0.00 83 1022.7
20260831192739 77 358 0.0 1.0 0.00 0.00 0.00 78 1022.6
20260831192234 77 195 0.0 0.0 0.00 0.00 0.00 83 1022.9
20260831191730 77 0 0.0 0.0 0.00 0.00 0.00 80 1023.0
20260831191226 76 34 0.0 0.0 0.00 0.00 0.00 82 1023.0
20260831190721 76 1 0.0 0.0 0.00 0.00 0.00 81 1023.2
20260831190221 76 359 0.0 0.0 0.00 0.00 0.00 85 1023.1
20260831185715 77 359 0.0 0.0 0.00 0.00 0.00 86 1023.1
20260831185211 77 359 0.0 0.0 0.00 0.00 0.00 86 1023.3
20260831184710 77 359 0.0 0.0 0.00 0.00 0.00 83 1023.3
20260831184206 77 1 0.0 0.0 0.00 0.00 0.00 79 1023.0
20260831183705 77 1 0.0 0.0 0.00 0.00 0.00 83 1022.9
20260831183200 77 0 0.0 0.0 0.00 0.00 0.00 79 1022.9
20260831182659 77 0 0.0 0.0 0.00 0.00 0.00 81 1023.0
20260831182155 77 1 0.0 0.0 0.00 0.00 0.00 78 1023.1
20260831181649 78 359 0.0 0.0 0.00 0.00 0.00 80 1023.5
20260831181144 78 359 0.0 0.0 0.00 0.00 0.00 78 1023.3
20260831180639 78 359 0.0 0.0 0.00 0.00 0.00 78 1023.7
20260831180134 78 359 0.0 0.0 0.00 0.00 0.00 81 1023.5
20260831175629 77 358 0.0 0.0 0.00 0.00 0.00 88 1023.5
20260831175126 77 358 0.0 0.0 0.00 0.00 0.00 79 1023.2
20260831174625 77 358 0.0 0.0 0.00 0.00 0.00 81 1023.3
20260831174120 76 359 0.0 0.0 0.00 0.00 0.00 81 1023.4
20260831173618 75 358 0.0 0.0 0.00 0.00 0.00 87 1023.1
20260831173115 75 358 0.0 0.0 0.00 0.00 0.00 88 1023.3
20260831172614 75 358 0.0 0.0 0.00 0.00 0.00 86 1023.6
20260831172114 75 358 0.0 0.0 0.00 0.00 0.00 83 1023.5
20260831171610 75 357 0.0 0.0 0.00 0.00 0.00 84 1023.7
20260831171107 76 357 0.0 0.0 0.00 0.00 0.00 79 1023.8
20260831170603 77 357 0.0 0.0 0.00 0.00 0.00 76 1023.8
20260831170101 78 357 0.0 0.0 0.00 0.00 0.00 81 1024.2
20260831165555 78 358 0.0 0.0 0.00 0.00 0.00 77 1024.1
20260831165052 78 357 2.0 2.0 0.00 0.00 0.00 75 1024.0
20260831164547 77 333 0.0 0.0 0.00 0.00 0.00 81 1024.1
20260831164043 78 330 0.0 0.0 0.00 0.00 0.00 77 1024.1
20260831163537 79 331 0.0 0.0 0.00 0.00 0.00 74 1024.0
20260831163033 76 307 0.0 0.0 0.00 0.00 0.00 83 1024.0
20260831162532 76 306 0.0 0.0 0.00 0.00 0.00 86 1023.8
20260831162030 76 328 0.0 0.0 0.00 0.00 0.00 82 1024.2
20260831161527 77 350 0.0 0.0 0.00 0.00 0.00 76 1024.1
20260831161023 77 0 0.0 0.0 0.00 0.00 0.00 76 1024.4
20260831160522 75 15 0.0 0.0 0.00 0.00 0.00 79 1024.5
20260831160018 75 12 0.0 0.0 0.00 0.00 0.00 82 1024.2
20260831155512 75 18 1.0 1.0 0.00 0.00 0.00 78 1024.3
20260831155007 76 320 0.0 0.0 0.00 0.00 0.00 86 1024.6
20260831154504 78 356 0.0 1.0 0.00 0.00 0.00 75 1024.6
20260831154003 77 333 0.0 0.0 0.00 0.00 0.00 79 1024.6
20260831153457 77 338 0.0 0.0 0.00 0.00 0.00 78 1024.3
20260831152954 76 338 0.0 0.0 0.00 0.00 0.00 82 1024.5
20260831152449 75 358 0.0 0.0 0.00 0.00 0.00 83 1024.7
20260831151944 75 0 0.0 0.0 0.00 0.00 0.00 86 1024.6
20260831151443 73 7 0.0 1.0 0.00 0.00 0.00 85 1024.7
20260831150938 74 325 0.0 0.0 0.00 0.00 0.00 85 1024.6
20260831150434 73 345 0.0 0.0 0.00 0.00 0.00 86 1024.5
20260831145933 72 344 0.0 0.0 0.00 0.00 0.00 85 1024.6
20260831145430 72 344 0.0 0.0 0.00 0.00 0.00 86 1024.6
20260831144925 72 345 0.0 0.0 0.00 0.00 0.00 86 1024.3
20260831144415 72 345 0.0 0.0 0.00 0.00 0.00 84 1024.6
20260831143916 72 345 0.0 0.0 0.00 0.00 0.00 85 1024.5
20260831143411 72 346 0.0 0.0 0.00 0.00 0.00 85 1024.5
20260831142907 72 346 0.0 0.0 0.00 0.00 0.00 85 1024.5
20260831142402 72 346 0.0 0.0 0.00 0.00 0.00 85 1024.4
20260831141856 72 345 0.0 0.0 0.00 0.00 0.00 86 1024.5
20260831141350 72 346 0.0 0.0 0.00 0.00 0.00 87 1024.6
20260831140845 71 346 0.0 0.0 0.00 0.00 0.00 91 1024.4
20260831140340 70 345 0.0 0.0 0.00 0.00 0.00 92 1024.3
20260831135838 70 345 0.0 0.0 0.00 0.00 0.00 89 1024.3
20260831135333 70 345 0.0 0.0 0.00 0.00 0.00 91 1024.5
20260831134829 70 345 0.0 0.0 0.00 0.00 0.00 91 1024.3
20260831134326 70 345 0.0 0.0 0.00 0.00 0.00 92 1024.3
20260831133824 70 345 0.0 0.0 0.00 0.00 0.00 89 1024.3
20260831133324 70 345 0.0 0.0 0.00 0.00 0.00 91 1024.3
20260831132819 70 345 0.0 0.0 0.00 0.00 0.00 94 1024.5
20260831132314 70 346 0.0 0.0 0.00 0.00 0.00 90 1024.5
20260831131809 70 345 0.0 0.0 0.00 0.00 0.00 94 1024.4
20260831131305 69 344 0.0 0.0 0.00 0.00 0.00 97 1024.5
20260831130759 68 345 0.0 0.0 0.00 0.00 0.00 99 1024.2
20260831130255 66 346 0.0 0.0 0.00 0.00 0.00 99 1024.4
20260831125754 66 345 0.0 0.0 0.00 0.00 0.00 99 1024.3
20260831125250 66 344 0.0 0.0 0.00 0.00 0.00 99 1024.4
20260831124744 65 344 0.0 1.0 0.00 0.00 0.00 99 1024.6
20260831124241 66 26 0.0 0.0 0.00 0.00 0.00 99 1024.5
20260831123740 66 34 0.0 0.0 0.00 0.00 0.00 99 1024.8
20260831123239 66 34 0.0 0.0 0.00 0.00 0.00 99 1024.6
20260831122733 65 34 0.0 0.0 0.00 0.00 0.00 99 1024.6
20260831122230 65 34 0.0 0.0 0.00 0.00 0.00 99 1024.7
20260831121728 64 34 0.0 0.0 0.00 0.00 0.00 99 1024.7
20260831121225 63 34 0.0 0.0 0.00 0.00 0.00 99 1024.6
20260831120721 63 34 0.0 0.0 0.00 0.00 0.00 99 1024.7
20260831120215 63 34 0.0 0.0 0.00 0.00 0.00 99 1024.6
20260831115711 62 34 0.0 0.0 0.00 0.00 0.00 99 1024.6
20260831115207 62 34 0.0 0.0 0.00 0.00 0.00 99 1024.5
20260831114706 61 34 0.0 0.0 0.00 0.00 0.00 99 1024.6
20260831114205 61 34 0.0 0.0 0.00 0.00 0.00 99 1024.5
20260831113701 61 34 0.0 0.0 0.00 0.00 0.00 99 1024.5
20260831113155 61 34 0.0 0.0 0.00 0.00 0.00 99 1024.5
20260831112654 61 34 0.0 0.0 0.00 0.00 0.00 99 1024.3
20260831112150 61 34 0.0 0.0 0.00 0.00 0.00 99 1024.4
20260831111645 60 34 0.0 0.0 0.00 0.00 0.00 99 1024.2
20260831111141 60 34 0.0 0.0 0.00 0.00 0.00 99 1024.1